This is the latest recevied weather packets stored in our database for station/object DL2ARH-7. If no packets are shown the sender has not sent any weather packets the latest 1 day(s).
| Time | Temp. | Humidity | Pressure | Rain* | Wind** | Luminosity | Snow |
|---|---|---|---|---|---|---|---|
| 1778074543 | 20.56° C | 20% | 1004.9 hPa | 0 mm | - | - | - |
| 1778074345 | 20.56° C | 21% | 1005 hPa | 0 mm | - | - | - |
| 1778073611 | 20° C | 23% | 1005 hPa | 0 mm | - | - | - |
| 1778073345 | 19.44° C | 23% | 1005.1 hPa | 0 mm | - | - | - |
| 1778073279 | 20° C | 23% | 1005 hPa | 0 mm | - | - | - |
| 1778073213 | 20° C | 23% | 1005.1 hPa | 0 mm | - | - | - |
| 1778073079 | 20° C | 23% | 1005.2 hPa | 0 mm | - | - | - |
| 1778072813 | 19.44° C | 24% | 1005.1 hPa | 0 mm | - | - | - |
| 1778072747 | 19.44° C | 24% | 1005.2 hPa | 0 mm | - | - | - |
| 1778072614 | 19.44° C | 24% | 1005.1 hPa | 0 mm | - | - | - |
| 1778072547 | 19.44° C | 24% | 1005.2 hPa | 0 mm | - | - | - |
| 1778072148 | 20° C | 21% | 1005.2 hPa | 0 mm | - | - | - |
| 1778072015 | 20° C | 21% | 1005.3 hPa | 0 mm | - | - | - |
| 1778071948 | 20° C | 21% | 1005.1 hPa | 0 mm | - | - | - |
| 1778071617 | 20.56° C | 20% | 1005.2 hPa | 0 mm | - | - | - |
| 1778071350 | 20.56° C | 18% | 1005.1 hPa | 0 mm | - | - | - |
| 1778071286 | 21.11° C | 18% | 1005.2 hPa | 0 mm | - | - | - |
| 1778071017 | 21.11° C | 18% | 1005.2 hPa | 0 mm | - | - | - |
| 1778070950 | 21.11° C | 18% | 1005.2 hPa | 0 mm | - | - | - |
| 1778070750 | 21.11° C | 17% | 1005.3 hPa | 0 mm | - | - | - |
| 1778070615 | 22.22° C | 17% | 1005.3 hPa | 0 mm | - | - | - |
| 1778070082 | 21.67° C | 18% | 1005.2 hPa | 0 mm | - | - | - |
| 1778069947 | 21.67° C | 19% | 1005.3 hPa | 0 mm | - | - | - |
| 1778069881 | 21.67° C | 19% | 1005.3 hPa | 0 mm | - | - | - |
| 1778069680 | 21.11° C | 19% | 1005.4 hPa | 0 mm | - | - | - |
* Rain latest hour (hover to see other rain measurements)
** Current wind speed in m/s (hover to see current wind gust speed)